sat.trackr.live / text

‹ back to catalog

STARLINK-31094

NORAD 58593 · 2023-200E

PAYLOAD ACTIVE UNKNOWN

§ Identity

Operator
Country
US
Launch date
2023-12-19
Launch site
AFETR
Launch vehicle
Mass (kg)
RCS (m²)

Purposes: comms

External: N2YO · Heavens-Above · Gunter

§ Orbital elements

Epoch: 2026-05-25T03:16:59.926080Z

Period
94.27 min
Inclination
43.0027°
Eccentricity
0.0001281
Mean motion
15.27579092 rev/d
Perigee alt
482.2 km
Apogee alt
483.9 km
Semi-major
6,861.2 km
B*
2.0299e-5
RAAN
97.0210°
Arg perigee
289.0088°
Mean anomaly
71.0625°
Rev number
13,530

§ Raw data

STARLINK-310941 58593U 23200E   26145.13680470  .00000296  00000+0  20299-4 0  99962 58593  43.0027  97.0210 0001281 289.0088  71.0625 15.27579092135304

JSON: /api/v1/satellites/58593 · /tle

For live sub-satellite position, see the globe view (requires WebGL).

§ Visibility from observer

Set your observer location to see the next 7 days of passes ≥ 10°. The values pass through the URL so the page stays shareable.

No JS? Fill the form by hand. The geolocation button needs JavaScript.